Simultaneous Nadir Overpasses (SNOs) Predictions

Prediction of SNOs between GOES-16 and METOP-B Satellite Orbit:

Table of predicted SNOs for the next 14.0 days since TLE Epoch: 8/7/2021
Index Date Time (GOES-16) GOES-16 Lat,Lon METOP-B Lat,Lon Distance(km) Time Diff (sec)
1 08/08/2021 02:33:05 -0.00, -75.22 -0.01, -75.25 3.26 80
2 08/10/2021 14:28:38 0.00, -75.27 -0.08, -74.81 51.20 80
3 08/12/2021 02:50:18 -0.01, -75.26 -0.95, -79.40 472.91 80
4 08/13/2021 02:27:00 -0.00, -75.27 0.20, -74.42 97.22 80
5 08/14/2021 14:48:31 0.02, -75.31 0.86, -78.97 417.23 80
6 08/15/2021 14:25:13 0.01, -75.33 -0.30, -73.99 153.15 80
7 08/17/2021 02:46:53 -0.03, -75.32 -0.73, -78.58 370.31 80
8 08/18/2021 02:23:34 -0.02, -75.34 0.37, -73.58 200.06 80
9 08/19/2021 14:45:06 0.04, -75.38 0.63, -78.14 313.95 80
10 08/20/2021 14:21:46 0.02, -75.40 -0.47, -73.15 256.85 80
